Time,TemperatureF,DewpointF,PressureIn,WindDirection,WindDirectionDegrees,WindSpeedMPH,WindSpeedGustMPH,Humidity,HourlyPrecipIn,Conditions,Clouds,dailyrainin,SoftwareType,DateUTC
2013-07-08 00:04:00,84.9,70.4,29.75,North,0,0.0,0.0,62,0.00,CLR,,0.00,WeatherDisplay:10.37,2013-07-08 05:04:00,
2013-07-08 00:09:00,84.7,70.3,29.75,North,0,0.0,0.0,62,0.00,CLR,,0.00,WeatherDisplay:10.37,2013-07-08 05:09:00,
2013-07-08 00:14:00,84.6,70.1,29.75,North,0,0.0,0.0,62,0.00,CLR,,0.00,WeatherDisplay:10.37,2013-07-08 05:14:00,
2013-07-08 00:19:00,84.4,69.9,29.75,North,0,0.0,0.0,62,0.00,CLR,,0.00,WeatherDisplay:10.37,2013-07-08 05:19:00,
2013-07-08 00:24:00,84.2,70.2,29.75,North,0,0.0,0.0,63,0.00,CLR,,0.00,WeatherDisplay:10.37,2013-07-08 05:24:00,
2013-07-08 00:29:00,84.2,70.2,29.75,North,0,0.0,0.0,63,0.00,CLR,,0.00,WeatherDisplay:10.37,2013-07-08 05:29:00,
2013-07-08 00:34:00,84.0,70.1,29.75,North,0,0.0,0.0,63,0.00,CLR,,0.00,WeatherDisplay:10.37,2013-07-08 05:34:00,
2013-07-08 00:39:00,83.8,69.9,29.75,North,0,0.0,0.0,63,0.00,CLR,,0.00,WeatherDisplay:10.37,2013-07-08 05:39:00,
2013-07-08 00:44:00,83.8,69.9,29.75,North,0,0.0,0.0,63,0.00,CLR,,0.00,WeatherDisplay:10.37,2013-07-08 05:44:00,
2013-07-08 00:49:00,83.7,69.7,29.75,North,0,0.0,0.0,63,0.00,CLR,,0.00,WeatherDisplay:10.37,2013-07-08 05:49:00,
2013-07-08 00:54:00,83.8,69.9,29.75,North,0,0.0,0.0,63,0.00,CLR,,0.00,WeatherDisplay:10.37,2013-07-08 05:54:00,
2013-07-08 00:59:00,83.8,69.9,29.75,North,0,0.0,0.0,63,0.00,CLR,,0.00,WeatherDisplay:10.37,2013-07-08 05:59:00,
2013-07-08 01:04:00,83.8,69.9,29.75,North,0,0.0,0.0,63,0.00,CLR,,0.00,WeatherDisplay:10.37,2013-07-08 06:04:00,
2013-07-08 01:09:00,83.7,69.7,29.75,North,0,0.0,0.0,63,0.00,CLR,,0.00,WeatherDisplay:10.37,2013-07-08 06:09:00,
2013-07-08 01:14:00,83.5,70.0,29.75,North,0,0.0,0.0,64,0.00,CLR,,0.00,WeatherDisplay:10.37,2013-07-08 06:14:00,
2013-07-08 01:19:00,83.5,70.0,29.75,North,0,0.0,0.0,64,0.00,CLR,,0.00,WeatherDisplay:10.37,2013-07-08 06:19:00,
2013-07-08 01:24:00,83.1,69.7,29.75,North,0,0.0,0.0,64,0.00,CLR,,0.00,WeatherDisplay:10.37,2013-07-08 06:24:00,
2013-07-08 01:29:00,83.1,70.1,29.75,North,0,0.0,0.0,65,0.00,CLR,,0.00,WeatherDisplay:10.37,2013-07-08 06:29:00,
2013-07-08 01:34:00,83.1,70.1,29.75,North,0,0.0,0.0,65,0.00,CLR,,0.00,WeatherDisplay:10.37,2013-07-08 06:34:00,
2013-07-08 01:39:00,82.9,70.0,29.75,North,0,0.0,0.0,65,0.00,CLR,,0.00,WeatherDisplay:10.37,2013-07-08 06:39:00,
2013-07-08 01:44:00,82.8,69.8,29.75,North,0,0.0,0.0,65,0.00,CLR,,0.00,WeatherDisplay:10.37,2013-07-08 06:44:00,
2013-07-08 01:49:00,82.6,70.1,29.75,North,0,0.0,0.0,66,0.00,CLR,,0.00,WeatherDisplay:10.37,2013-07-08 06:49:00,
2013-07-08 01:54:00,82.4,69.9,29.75,North,0,0.0,0.0,66,0.00,CLR,,0.00,WeatherDisplay:10.37,2013-07-08 06:54:00,
2013-07-08 01:59:00,82.4,69.9,29.75,North,0,0.0,0.0,66,0.00,CLR,,0.00,WeatherDisplay:10.37,2013-07-08 06:59:00,
2013-07-08 02:04:00,82.0,69.6,29.75,North,0,0.0,0.0,66,0.00,CLR,,0.00,WeatherDisplay:10.37,2013-07-08 07:04:00,
2013-07-08 02:09:00,81.9,69.4,29.75,North,0,0.0,0.0,66,0.00,CLR,,0.00,WeatherDisplay:10.37,2013-07-08 07:09:00,
2013-07-08 02:14:00,81.7,69.2,29.75,North,0,0.0,0.0,66,0.00,CLR,,0.00,WeatherDisplay:10.37,2013-07-08 07:14:00,
2013-07-08 02:19:00,81.7,69.7,29.75,North,0,0.0,0.0,67,0.00,CLR,,0.00,WeatherDisplay:10.37,2013-07-08 07:19:00,
2013-07-08 02:24:00,81.7,69.7,29.75,North,0,0.0,0.0,67,0.00,CLR,,0.00,WeatherDisplay:10.37,2013-07-08 07:24:00,
2013-07-08 02:29:00,81.5,69.5,29.75,North,0,0.0,0.0,67,0.00,CLR,,0.00,WeatherDisplay:10.37,2013-07-08 07:29:00,
2013-07-08 02:34:00,81.3,69.7,29.76,North,0,0.0,0.0,68,0.00,CLR,,0.00,WeatherDisplay:10.37,2013-07-08 07:34:00,
2013-07-08 02:39:00,81.1,69.6,29.75,North,0,0.0,0.0,68,0.00,CLR,,0.00,WeatherDisplay:10.37,2013-07-08 07:39:00,
2013-07-08 02:44:00,81.0,69.8,29.76,North,0,0.0,0.0,69,0.00,CLR,,0.00,WeatherDisplay:10.37,2013-07-08 07:44:00,
2013-07-08 02:49:00,81.0,69.8,29.76,North,0,0.0,0.0,69,0.00,CLR,,0.00,WeatherDisplay:10.37,2013-07-08 07:49:00,
2013-07-08 02:54:00,80.6,69.5,29.76,North,0,0.0,0.0,69,0.00,CLR,,0.00,WeatherDisplay:10.37,2013-07-08 07:54:00,
2013-07-08 02:59:00,80.6,69.5,29.75,North,0,0.0,0.0,69,0.00,CLR,,0.00,WeatherDisplay:10.37,2013-07-08 07:59:00,
2013-07-08 03:04:00,80.6,69.5,29.76,North,0,0.0,0.0,69,0.00,CLR,,0.00,WeatherDisplay:10.37,2013-07-08 08:04:00,
2013-07-08 03:09:00,80.6,69.9,29.76,North,0,0.0,0.0,70,0.00,CLR,,0.00,WeatherDisplay:10.37,2013-07-08 08:09:00,
2013-07-08 03:14:00,80.6,69.9,29.76,North,0,0.0,0.0,70,0.00,CLR,,0.00,WeatherDisplay:10.37,2013-07-08 08:14:00,
2013-07-08 03:20:00,80.6,69.9,29.75,North,0,0.0,0.0,70,0.00,CLR,,0.00,WeatherDisplay:10.37,2013-07-08 08:20:00,
2013-07-08 03:25:00,80.4,69.7,29.76,North,0,0.0,0.0,70,0.00,CLR,,0.00,WeatherDisplay:10.37,2013-07-08 08:25:00,
2013-07-08 03:30:00,80.2,70.0,29.76,North,0,0.0,0.0,71,0.00,CLR,,0.00,WeatherDisplay:10.37,2013-07-08 08:30:00,
2013-07-08 03:35:00,79.9,69.6,29.76,North,0,0.0,0.0,71,0.00,CLR,,0.00,WeatherDisplay:10.37,2013-07-08 08:35:00,
2013-07-08 03:40:00,79.7,69.5,29.76,North,0,0.0,0.0,71,0.00,CLR,,0.00,WeatherDisplay:10.37,2013-07-08 08:40:00,
2013-07-08 03:45:00,79.5,69.7,29.76,North,0,0.0,0.0,72,0.00,CLR,,0.00,WeatherDisplay:10.37,2013-07-08 08:45:00,
2013-07-08 03:50:00,79.3,69.9,29.76,North,0,0.0,0.0,73,0.00,CLR,,0.00,WeatherDisplay:10.37,2013-07-08 08:50:00,
2013-07-08 03:55:00,79.2,69.8,29.76,North,0,0.0,0.0,73,0.00,CLR,,0.00,WeatherDisplay:10.37,2013-07-08 08:55:00,
2013-07-08 04:00:00,79.0,69.6,29.76,North,0,0.0,0.0,73,0.00,CLR,,0.00,WeatherDisplay:10.37,2013-07-08 09:00:00,
2013-07-08 04:05:00,78.8,70.2,29.77,North,0,0.0,0.0,75,0.00,CLR,,0.00,WeatherDisplay:10.37,2013-07-08 09:05:00,
2013-07-08 04:10:00,78.8,70.2,29.77,North,0,0.0,0.0,75,0.00,CLR,,0.00,WeatherDisplay:10.37,2013-07-08 09:10:00,
2013-07-08 04:15:00,78.8,70.2,29.77,North,0,0.0,0.0,75,0.00,CLR,,0.00,WeatherDisplay:10.37,2013-07-08 09:15:00,
2013-07-08 04:20:00,78.6,70.0,29.77,North,0,0.0,0.0,75,0.00,CLR,,0.00,WeatherDisplay:10.37,2013-07-08 09:20:00,
2013-07-08 04:25:00,78.6,70.0,29.77,North,0,0.0,0.0,75,0.00,CLR,,0.00,WeatherDisplay:10.37,2013-07-08 09:25:00,
2013-07-08 04:30:00,78.6,70.0,29.77,North,0,0.0,0.0,75,0.00,CLR,,0.00,WeatherDisplay:10.37,2013-07-08 09:30:00,
2013-07-08 04:35:00,78.4,69.9,29.78,North,0,0.0,0.0,75,0.00,CLR,,0.00,WeatherDisplay:10.37,2013-07-08 09:35:00,
2013-07-08 04:40:00,78.4,69.9,29.78,North,0,0.0,0.0,75,0.00,CLR,,0.00,WeatherDisplay:10.37,2013-07-08 09:40:00,
2013-07-08 04:45:00,78.3,69.7,29.78,North,0,0.0,0.0,75,0.00,CLR,,0.00,WeatherDisplay:10.37,2013-07-08 09:45:00,
2013-07-08 04:50:00,78.3,69.7,29.78,North,0,0.0,0.0,75,0.00,CLR,,0.00,WeatherDisplay:10.37,2013-07-08 09:50:00,
2013-07-08 04:55:00,78.1,69.5,29.78,North,0,0.0,0.0,75,0.00,CLR,,0.00,WeatherDisplay:10.37,2013-07-08 09:55:00,
2013-07-08 05:00:00,78.1,69.9,29.78,North,0,0.0,0.0,76,0.00,CLR,,0.00,WeatherDisplay:10.37,2013-07-08 10:00:00,
2013-07-08 05:05:00,78.1,69.9,29.79,North,0,0.0,0.0,76,0.00,CLR,,0.00,WeatherDisplay:10.37,2013-07-08 10:05:00,
2013-07-08 05:10:00,78.1,69.9,29.79,North,0,0.0,0.0,76,0.00,CLR,,0.00,WeatherDisplay:10.37,2013-07-08 10:10:00,
2013-07-08 05:15:00,77.9,70.1,29.79,North,0,0.0,0.0,77,0.00,CLR,,0.00,WeatherDisplay:10.37,2013-07-08 10:15:00,
2013-07-08 05:20:00,77.9,70.5,29.79,North,0,0.0,0.0,78,0.00,CLR,,0.00,WeatherDisplay:10.37,2013-07-08 10:20:00,
2013-07-08 05:25:00,77.7,70.3,29.79,North,0,0.0,0.0,78,0.00,CLR,,0.00,WeatherDisplay:10.37,2013-07-08 10:25:00,
2013-07-08 05:30:00,77.7,69.9,29.80,North,0,0.0,0.0,77,0.00,CLR,,0.00,WeatherDisplay:10.37,2013-07-08 10:30:00,
2013-07-08 05:35:00,77.7,70.3,29.80,North,0,0.0,0.0,78,0.00,CLR,,0.00,WeatherDisplay:10.37,2013-07-08 10:35:00,
2013-07-08 05:40:00,77.7,70.3,29.80,North,0,0.0,0.0,78,0.00,CLR,,0.00,WeatherDisplay:10.37,2013-07-08 10:40:00,
2013-07-08 05:41:00,77.7,70.3,29.80,North,0,0.0,0.0,78,0.00,CLR,,0.00,WeatherDisplay:10.37,2013-07-08 10:41:00,
2013-07-08 05:46:00,77.5,70.1,29.80,North,0,0.0,0.0,78,0.00,CLR,,0.00,WeatherDisplay:10.37,2013-07-08 10:46:00,
2013-07-08 05:51:00,77.5,70.5,29.80,North,0,0.0,0.0,79,0.00,CLR,,0.00,WeatherDisplay:10.37,2013-07-08 10:51:00,
2013-07-08 05:56:00,77.5,70.1,29.80,North,0,0.0,0.0,78,0.00,CLR,,0.00,WeatherDisplay:10.37,2013-07-08 10:56:00,
2013-07-08 06:01:00,77.4,70.0,29.80,North,0,0.0,0.0,78,0.00,CLR,,0.00,WeatherDisplay:10.37,2013-07-08 11:01:00,
2013-07-08 06:06:00,77.4,70.0,29.80,North,0,0.0,0.0,78,0.00,CLR,,0.00,WeatherDisplay:10.37,2013-07-08 11:06:00,
2013-07-08 06:11:00,77.5,70.1,29.80,North,0,0.0,0.0,78,0.00,CLR,,0.00,WeatherDisplay:10.37,2013-07-08 11:11:00,
2013-07-08 06:16:00,77.5,70.1,29.81,North,0,0.0,0.0,78,0.00,CLR,,0.00,WeatherDisplay:10.37,2013-07-08 11:16:00,
2013-07-08 06:21:00,77.4,70.0,29.81,North,0,0.0,0.0,78,0.00,CLR,,0.00,WeatherDisplay:10.37,2013-07-08 11:21:00,
2013-07-08 06:26:00,77.4,70.0,29.81,North,0,0.0,0.0,78,0.00,CLR,,0.00,WeatherDisplay:10.37,2013-07-08 11:26:00,
2013-07-08 06:31:00,77.4,70.0,29.82,North,0,0.0,0.0,78,0.00,CLR,,0.00,WeatherDisplay:10.37,2013-07-08 11:31:00,
2013-07-08 06:36:00,77.4,70.0,29.82,North,0,0.0,0.0,78,0.00,CLR,,0.00,WeatherDisplay:10.37,2013-07-08 11:36:00,
2013-07-08 06:41:00,77.4,70.0,29.82,North,0,0.0,0.0,78,0.00,CLR,,0.00,WeatherDisplay:10.37,2013-07-08 11:41:00,
2013-07-08 06:46:00,77.5,70.1,29.82,North,0,0.0,0.0,78,0.00,CLR,,0.00,WeatherDisplay:10.37,2013-07-08 11:46:00,
2013-07-08 06:51:00,77.5,70.1,29.82,North,0,0.0,0.0,78,0.00,CLR,,0.00,WeatherDisplay:10.37,2013-07-08 11:51:00,
2013-07-08 06:56:00,77.7,70.3,29.82,North,0,0.0,0.0,78,0.00,CLR,,0.00,WeatherDisplay:10.37,2013-07-08 11:56:00,
2013-07-08 07:02:00,77.5,70.1,29.82,North,0,0.0,0.0,78,0.00,CLR,,0.00,WeatherDisplay:10.37,2013-07-08 12:02:00,
2013-07-08 07:07:00,77.7,70.3,29.82,North,0,0.0,0.0,78,0.00,CLR,,0.00,WeatherDisplay:10.37,2013-07-08 12:07:00,
2013-07-08 07:12:00,77.7,70.3,29.82,North,0,0.0,0.0,78,0.00,CLR,,0.00,WeatherDisplay:10.37,2013-07-08 12:12:00,
2013-07-08 07:17:00,77.7,70.3,29.82,North,0,0.0,0.0,78,0.00,CLR,,0.00,WeatherDisplay:10.37,2013-07-08 12:17:00,
2013-07-08 07:22:00,77.7,70.7,29.82,North,0,0.0,0.0,79,0.00,CLR,,0.00,WeatherDisplay:10.37,2013-07-08 12:22:00,
2013-07-08 07:27:00,77.7,70.7,29.82,North,0,0.0,0.0,79,0.00,CLR,,0.00,WeatherDisplay:10.37,2013-07-08 12:27:00,
2013-07-08 07:32:00,77.7,70.7,29.82,North,0,0.0,0.0,79,0.00,CLR,,0.00,WeatherDisplay:10.37,2013-07-08 12:32:00,
2013-07-08 07:37:00,77.9,70.9,29.83,North,0,0.0,0.0,79,0.00,CLR,,0.00,WeatherDisplay:10.37,2013-07-08 12:37:00,
2013-07-08 07:42:00,77.9,71.2,29.82,North,0,0.0,0.0,80,0.00,CLR,,0.00,WeatherDisplay:10.37,2013-07-08 12:42:00,
2013-07-08 07:47:00,77.9,71.2,29.83,North,0,0.0,0.0,80,0.00,CLR,,0.00,WeatherDisplay:10.37,2013-07-08 12:47:00,
2013-07-08 07:52:00,78.1,71.4,29.83,North,0,0.0,0.0,80,0.00,CLR,,0.00,WeatherDisplay:10.37,2013-07-08 12:52:00,
2013-07-08 07:57:00,78.3,71.6,29.83,North,0,0.0,0.0,80,0.00,CLR,,0.00,WeatherDisplay:10.37,2013-07-08 12:57:00,
2013-07-08 08:02:00,78.4,71.8,29.83,North,0,0.0,0.0,80,0.00,CLR,,0.00,WeatherDisplay:10.37,2013-07-08 13:02:00,
2013-07-08 08:07:00,78.6,71.9,29.83,North,0,0.0,0.0,80,0.00,CLR,,0.00,WeatherDisplay:10.37,2013-07-08 13:07:00,
2013-07-08 08:12:00,78.8,71.7,29.84,North,0,0.0,0.0,79,0.00,CLR,,0.00,WeatherDisplay:10.37,2013-07-08 13:12:00,
2013-07-08 08:17:00,79.0,71.9,29.84,North,0,0.0,0.0,79,0.00,CLR,,0.00,WeatherDisplay:10.37,2013-07-08 13:17:00,
2013-07-08 08:22:00,79.2,72.1,29.84,North,0,0.0,0.0,79,0.00,CLR,,0.00,WeatherDisplay:10.37,2013-07-08 13:22:00,
2013-07-08 08:27:00,79.3,72.3,29.84,North,0,0.0,0.0,79,0.00,CLR,,0.00,WeatherDisplay:10.37,2013-07-08 13:27:00,
2013-07-08 08:32:00,79.5,72.1,29.84,North,0,0.0,0.0,78,0.00,CLR,,0.00,WeatherDisplay:10.37,2013-07-08 13:32:00,
2013-07-08 08:37:00,79.5,72.1,29.85,North,0,0.0,0.0,78,0.00,CLR,,0.00,WeatherDisplay:10.37,2013-07-08 13:37:00,
2013-07-08 08:42:00,79.9,72.0,29.85,North,0,0.0,0.0,77,0.00,CLR,,0.00,WeatherDisplay:10.37,2013-07-08 13:42:00,
2013-07-08 08:47:00,80.1,72.2,29.85,North,0,0.0,0.0,77,0.00,CLR,,0.00,WeatherDisplay:10.37,2013-07-08 13:47:00,
2013-07-08 08:52:00,80.2,72.4,29.85,North,0,0.0,0.0,77,0.00,CLR,,0.00,WeatherDisplay:10.37,2013-07-08 13:52:00,
2013-07-08 08:57:00,80.4,72.2,29.85,North,0,0.0,0.0,76,0.00,CLR,,0.00,WeatherDisplay:10.37,2013-07-08 13:57:00,
2013-07-08 09:02:00,80.8,72.1,29.85,North,0,0.0,0.0,75,0.00,CLR,,0.00,WeatherDisplay:10.37,2013-07-08 14:02:00,
2013-07-08 09:07:00,81.0,71.9,29.85,North,0,0.0,0.0,74,0.00,CLR,,0.00,WeatherDisplay:10.37,2013-07-08 14:07:00,
2013-07-08 09:12:00,81.3,71.8,29.85,North,0,0.0,0.0,73,0.00,CLR,,0.00,WeatherDisplay:10.37,2013-07-08 14:12:00,
2013-07-08 09:17:00,81.5,72.0,29.85,North,0,0.0,0.0,73,0.00,CLR,,0.00,WeatherDisplay:10.37,2013-07-08 14:17:00,
2013-07-08 09:22:00,81.7,71.8,29.85,North,0,0.0,0.0,72,0.00,CLR,,0.00,WeatherDisplay:10.37,2013-07-08 14:22:00,
2013-07-08 09:27:00,82.0,72.5,29.85,North,0,0.0,0.0,73,0.00,CLR,,0.00,WeatherDisplay:10.37,2013-07-08 14:27:00,
2013-07-08 09:32:00,82.0,72.5,29.85,North,0,0.0,0.0,73,0.00,CLR,,0.00,WeatherDisplay:10.37,2013-07-08 14:32:00,
2013-07-08 09:37:00,82.2,72.7,29.85,North,0,0.0,0.0,73,0.00,CLR,,0.00,WeatherDisplay:10.37,2013-07-08 14:37:00,
2013-07-08 09:42:00,82.6,73.0,29.85,North,0,0.0,0.0,73,0.00,CLR,,0.00,WeatherDisplay:10.37,2013-07-08 14:42:00,
2013-07-08 09:47:00,82.8,72.8,29.85,North,0,0.0,0.0,72,0.00,CLR,,0.00,WeatherDisplay:10.37,2013-07-08 14:47:00,
2013-07-08 09:52:00,82.9,73.0,29.85,North,0,0.0,0.0,72,0.00,CLR,,0.00,WeatherDisplay:10.37,2013-07-08 14:52:00,
2013-07-08 09:57:00,83.1,73.2,29.84,North,0,0.0,0.0,72,0.00,CLR,,0.00,WeatherDisplay:10.37,2013-07-08 14:57:00,
2013-07-08 10:02:00,83.3,72.9,29.85,North,0,0.0,0.0,71,0.00,SCT,,0.00,WeatherDisplay:10.37,2013-07-08 15:02:00,
2013-07-08 10:07:00,83.3,72.9,29.85,North,0,0.0,0.0,71,0.00,SCT,,0.00,WeatherDisplay:10.37,2013-07-08 15:07:00,
2013-07-08 10:12:00,83.1,72.7,29.85,North,0,0.0,0.0,71,0.00,SCT,,0.00,WeatherDisplay:10.37,2013-07-08 15:12:00,
2013-07-08 10:17:00,83.3,73.3,29.85,North,0,0.0,0.0,72,0.00,SCT,,0.00,WeatherDisplay:10.37,2013-07-08 15:17:00,
2013-07-08 10:22:00,83.8,73.4,29.84,North,0,0.0,0.0,71,0.00,SCT,,0.00,WeatherDisplay:10.37,2013-07-08 15:22:00,
2013-07-08 10:27:00,84.4,73.5,29.85,North,0,0.0,0.0,70,0.00,SCT,,0.00,WeatherDisplay:10.37,2013-07-08 15:27:00,
2013-07-08 10:32:00,84.9,74.0,29.85,North,0,0.0,0.0,70,0.00,SCT,,0.00,WeatherDisplay:10.37,2013-07-08 15:32:00,
2013-07-08 10:37:00,84.9,73.6,29.84,North,0,0.0,0.0,69,0.00,SCT,,0.00,WeatherDisplay:10.37,2013-07-08 15:37:00,
2013-07-08 10:42:00,84.9,73.2,29.85,North,0,0.0,0.0,68,0.00,SCT,,0.00,WeatherDisplay:10.37,2013-07-08 15:42:00,
2013-07-08 10:47:00,84.6,72.8,29.85,North,0,0.0,0.0,68,0.00,SCT,,0.00,WeatherDisplay:10.37,2013-07-08 15:47:00,
2013-07-08 10:52:00,84.7,73.4,29.85,North,0,0.0,0.0,69,0.00,SCT,,0.00,WeatherDisplay:10.37,2013-07-08 15:52:00,
2013-07-08 10:57:00,85.1,72.9,29.85,North,0,0.0,0.0,67,0.00,SCT,,0.00,WeatherDisplay:10.37,2013-07-08 15:57:00,
2013-07-08 11:02:00,85.3,73.1,29.85,North,0,0.0,0.0,67,0.00,BKN,,0.00,WeatherDisplay:10.37,2013-07-08 16:02:00,
2013-07-08 11:07:00,85.6,73.4,29.85,North,0,0.0,0.0,67,0.00,BKN,,0.00,WeatherDisplay:10.37,2013-07-08 16:07:00,
2013-07-08 11:12:00,86.0,73.3,29.85,North,0,0.0,0.0,66,0.00,BKN,,0.00,WeatherDisplay:10.37,2013-07-08 16:12:00,
2013-07-08 11:17:00,86.0,73.3,29.85,North,0,0.0,0.0,66,0.00,BKN,,0.00,WeatherDisplay:10.37,2013-07-08 16:17:00,
2013-07-08 11:22:00,86.5,73.8,29.85,North,0,0.0,0.0,66,0.00,BKN,,0.00,WeatherDisplay:10.37,2013-07-08 16:22:00,
2013-07-08 11:27:00,86.7,73.1,29.85,North,0,0.0,0.0,64,0.00,BKN,,0.00,WeatherDisplay:10.37,2013-07-08 16:27:00,
2013-07-08 11:32:00,86.4,73.2,29.85,North,0,0.0,0.0,65,0.00,BKN,,0.00,WeatherDisplay:10.37,2013-07-08 16:32:00,
2013-07-08 11:38:00,86.5,73.4,29.85,North,0,0.0,0.0,65,0.00,BKN,,0.00,WeatherDisplay:10.37,2013-07-08 16:38:00,
2013-07-08 11:43:00,86.7,73.5,29.85,North,0,0.0,0.0,65,0.00,BKN,,0.00,WeatherDisplay:10.37,2013-07-08 16:43:00,
2013-07-08 11:48:00,86.5,72.9,29.85,North,0,0.0,0.0,64,0.00,BKN,,0.00,WeatherDisplay:10.37,2013-07-08 16:48:00,
2013-07-08 11:53:00,86.7,72.6,29.85,North,0,0.0,0.0,63,0.00,BKN,,0.00,WeatherDisplay:10.37,2013-07-08 16:53:00,
2013-07-08 11:58:00,86.4,72.7,29.84,North,0,0.0,0.0,64,0.00,BKN,,0.00,WeatherDisplay:10.37,2013-07-08 16:58:00,
2013-07-08 12:03:00,86.4,72.3,29.84,North,0,0.0,0.0,63,0.00,SCT,,0.00,WeatherDisplay:10.37,2013-07-08 17:03:00,
2013-07-08 12:08:00,86.5,72.9,29.84,North,0,0.0,0.0,64,0.00,SCT,,0.00,WeatherDisplay:10.37,2013-07-08 17:08:00,
2013-07-08 12:13:00,87.1,73.4,29.84,North,0,0.0,0.0,64,0.00,SCT,,0.00,WeatherDisplay:10.37,2013-07-08 17:13:00,
2013-07-08 12:18:00,87.3,72.6,29.84,North,0,0.0,0.0,62,0.00,SCT,,0.00,WeatherDisplay:10.37,2013-07-08 17:18:00,
2013-07-08 12:23:00,87.4,72.8,29.84,North,0,0.0,0.0,62,0.00,SCT,,0.00,WeatherDisplay:10.37,2013-07-08 17:23:00,
2013-07-08 12:28:00,87.6,73.0,29.83,North,0,0.0,0.0,62,0.00,SCT,,0.00,WeatherDisplay:10.37,2013-07-08 17:28:00,
2013-07-08 12:34:00,88.3,73.2,29.83,North,0,0.0,0.0,61,0.00,SCT,,0.00,WeatherDisplay:10.37,2013-07-08 17:34:00,
2013-07-08 12:39:00,88.5,71.9,29.84,North,0,0.0,0.0,58,0.00,SCT,,0.00,WeatherDisplay:10.37,2013-07-08 17:39:00,
2013-07-08 12:44:00,88.9,72.2,29.83,North,0,0.0,0.0,58,0.00,SCT,,0.00,WeatherDisplay:10.37,2013-07-08 17:44:00,
2013-07-08 12:49:00,89.4,72.7,29.83,North,0,0.0,0.0,58,0.00,SCT,,0.00,WeatherDisplay:10.37,2013-07-08 17:49:00,
2013-07-08 12:54:00,89.6,72.3,29.83,North,0,0.0,0.0,57,0.00,SCT,,0.00,WeatherDisplay:10.37,2013-07-08 17:54:00,
2013-07-08 12:59:00,89.8,73.0,29.83,North,0,0.0,0.0,58,0.00,SCT,,0.00,WeatherDisplay:10.37,2013-07-08 17:59:00,
2013-07-08 13:05:00,89.8,72.0,29.83,North,0,0.0,0.0,56,0.00,SCT,,0.00,WeatherDisplay:10.37,2013-07-08 18:05:00,
2013-07-08 13:10:00,89.8,72.0,29.83,North,0,0.0,0.0,56,0.00,SCT,,0.00,WeatherDisplay:10.37,2013-07-08 18:10:00,
2013-07-08 13:15:00,89.8,72.0,29.82,North,0,0.0,0.0,56,0.00,SCT,,0.00,WeatherDisplay:10.37,2013-07-08 18:15:00,
2013-07-08 13:22:00,90.1,72.3,29.82,North,0,0.0,0.0,56,0.00,SCT,,0.00,WeatherDisplay:10.37,2013-07-08 18:22:00,
2013-07-08 13:28:00,90.5,71.6,29.82,North,0,0.0,0.0,54,0.00,SCT,,0.00,WeatherDisplay:10.37,2013-07-08 18:28:00,
2013-07-08 13:34:00,90.9,72.5,29.82,North,0,0.0,0.0,55,0.00,SCT,,0.00,WeatherDisplay:10.37,2013-07-08 18:34:00,
2013-07-08 13:39:00,90.9,72.5,29.82,North,0,0.0,0.0,55,0.00,SCT,,0.00,WeatherDisplay:10.37,2013-07-08 18:39:00,
2013-07-08 13:45:00,91.0,72.1,29.82,North,0,0.0,0.0,54,0.00,SCT,,0.00,WeatherDisplay:10.37,2013-07-08 18:45:00,
2013-07-08 13:50:00,91.2,72.8,29.82,North,0,0.0,0.0,55,0.00,SCT,,0.00,WeatherDisplay:10.37,2013-07-08 18:50:00,
2013-07-08 13:55:00,91.2,72.2,29.82,North,0,0.0,0.0,54,0.00,SCT,,0.00,WeatherDisplay:10.37,2013-07-08 18:55:00,
2013-07-08 14:00:00,91.4,73.0,29.81,North,0,0.0,0.0,55,0.00,SCT,,0.00,WeatherDisplay:10.37,2013-07-08 19:00:00,
2013-07-08 14:06:00,91.8,73.3,29.81,North,0,0.0,0.0,55,0.00,BKN,,0.00,WeatherDisplay:10.37,2013-07-08 19:06:00,
2013-07-08 14:12:00,92.5,73.4,29.81,North,0,0.0,0.0,54,0.00,BKN,,0.00,WeatherDisplay:10.37,2013-07-08 19:12:00,
2013-07-08 14:17:00,92.8,73.7,29.81,North,0,0.0,0.0,54,0.00,BKN,,0.00,WeatherDisplay:10.37,2013-07-08 19:17:00,
2013-07-08 14:23:00,92.8,72.6,29.81,North,0,0.0,0.0,52,0.00,BKN,,0.00,WeatherDisplay:10.37,2013-07-08 19:23:00,
2013-07-08 14:28:00,92.5,72.3,29.81,North,0,0.0,0.0,52,0.00,BKN,,0.00,WeatherDisplay:10.37,2013-07-08 19:28:00,
2013-07-08 14:33:00,92.3,71.6,29.81,North,0,0.0,0.0,51,0.00,BKN,,0.00,WeatherDisplay:10.37,2013-07-08 19:33:00,
2013-07-08 14:38:00,92.7,72.5,29.81,North,0,0.0,0.0,52,0.00,BKN,,0.00,WeatherDisplay:10.37,2013-07-08 19:38:00,
2013-07-08 14:43:00,92.8,72.6,29.81,North,0,0.0,0.0,52,0.00,BKN,,0.00,WeatherDisplay:10.37,2013-07-08 19:43:00,
2013-07-08 14:48:00,93.4,73.1,29.80,North,0,0.0,0.0,52,0.00,BKN,,0.00,WeatherDisplay:10.37,2013-07-08 19:48:00,
2013-07-08 14:53:00,93.6,73.3,29.80,North,0,0.0,0.0,52,0.00,BKN,,0.00,WeatherDisplay:10.37,2013-07-08 19:53:00,
2013-07-08 14:59:00,94.1,73.8,29.80,North,0,0.0,0.0,52,0.00,BKN,,0.00,WeatherDisplay:10.37,2013-07-08 19:59:00,
2013-07-08 15:04:00,94.3,71.6,29.80,North,0,0.0,0.0,48,0.00,SCT,,0.00,WeatherDisplay:10.37,2013-07-08 20:04:00,
2013-07-08 15:10:00,93.9,71.9,29.79,North,0,0.0,0.0,49,0.00,SCT,,0.00,WeatherDisplay:10.37,2013-07-08 20:10:00,
2013-07-08 15:15:00,93.7,71.7,29.79,North,0,0.0,0.0,49,0.00,SCT,,0.00,WeatherDisplay:10.37,2013-07-08 20:15:00,
2013-07-08 15:21:00,94.1,72.0,29.79,North,0,0.0,0.0,49,0.00,SCT,,0.00,WeatherDisplay:10.37,2013-07-08 20:21:00,
2013-07-08 15:27:00,94.6,71.9,29.79,North,0,0.0,0.0,48,0.00,SCT,,0.00,WeatherDisplay:10.37,2013-07-08 20:27:00,
2013-07-08 15:32:00,95.0,72.8,29.79,North,0,0.0,0.0,49,0.00,SCT,,0.00,WeatherDisplay:10.37,2013-07-08 20:32:00,
2013-07-08 15:37:00,95.5,73.3,29.79,North,0,0.0,0.0,49,0.00,SCT,,0.00,WeatherDisplay:10.37,2013-07-08 20:37:00,
2013-07-08 15:43:00,95.7,72.9,29.79,North,0,0.0,0.0,48,0.00,SCT,,0.00,WeatherDisplay:10.37,2013-07-08 20:43:00,
2013-07-08 15:49:00,95.2,71.8,29.78,North,0,0.0,0.0,47,0.00,SCT,,0.00,WeatherDisplay:10.37,2013-07-08 20:49:00,
2013-07-08 15:54:00,95.4,72.6,29.78,North,0,0.0,0.0,48,0.00,SCT,,0.00,WeatherDisplay:10.37,2013-07-08 20:54:00,
2013-07-08 15:59:00,95.2,72.4,29.78,North,0,0.0,0.0,48,0.00,SCT,,0.00,WeatherDisplay:10.37,2013-07-08 20:59:00,
2013-07-08 16:04:00,95.2,72.4,29.78,North,0,0.0,0.0,48,0.00,CLR,,0.00,WeatherDisplay:10.37,2013-07-08 21:04:00,
2013-07-08 16:09:00,95.5,72.1,29.78,North,0,0.0,0.0,47,0.00,CLR,,0.00,WeatherDisplay:10.37,2013-07-08 21:09:00,
2013-07-08 16:14:00,96.1,73.2,29.78,North,0,0.0,0.0,48,0.00,CLR,,0.00,WeatherDisplay:10.37,2013-07-08 21:14:00,
2013-07-08 16:19:00,96.8,73.2,29.78,North,0,0.0,0.0,47,0.00,CLR,,0.00,WeatherDisplay:10.37,2013-07-08 21:19:00,
2013-07-08 16:24:00,97.2,72.9,29.77,North,0,0.0,0.0,46,0.00,CLR,,0.00,WeatherDisplay:10.37,2013-07-08 21:24:00,
2013-07-08 16:30:00,97.2,71.6,29.77,North,0,0.0,0.0,44,0.00,CLR,,0.00,WeatherDisplay:10.37,2013-07-08 21:30:00,
2013-07-08 16:35:00,97.2,72.9,29.77,North,0,0.0,0.0,46,0.00,CLR,,0.00,WeatherDisplay:10.37,2013-07-08 21:35:00,
2013-07-08 16:40:00,97.3,72.4,29.77,North,0,0.0,0.0,45,0.00,CLR,,0.00,WeatherDisplay:10.37,2013-07-08 21:40:00,
2013-07-08 16:45:00,97.5,71.9,29.77,North,0,0.0,0.0,44,0.00,CLR,,0.00,WeatherDisplay:10.37,2013-07-08 21:45:00,
2013-07-08 16:50:00,97.5,71.3,29.77,North,0,0.0,0.0,43,0.00,CLR,,0.00,WeatherDisplay:10.37,2013-07-08 21:50:00,
2013-07-08 16:55:00,97.5,72.6,29.77,North,0,0.0,0.0,45,0.00,CLR,,0.00,WeatherDisplay:10.37,2013-07-08 21:55:00,
2013-07-08 17:01:00,97.5,72.6,29.77,North,0,0.0,0.0,45,0.00,CLR,,0.00,WeatherDisplay:10.37,2013-07-08 22:01:00,
2013-07-08 17:07:00,98.1,72.4,29.77,North,0,0.0,0.0,44,0.00,CLR,,0.00,WeatherDisplay:10.37,2013-07-08 22:07:00,
2013-07-08 17:12:00,97.9,70.9,29.76,North,0,0.0,0.0,42,0.00,CLR,,0.00,WeatherDisplay:10.37,2013-07-08 22:12:00,
2013-07-08 17:18:00,97.2,70.9,29.76,North,0,0.0,0.0,43,0.00,CLR,,0.00,WeatherDisplay:10.37,2013-07-08 22:18:00,
2013-07-08 17:24:00,97.2,71.6,29.76,North,0,0.0,0.0,44,0.00,CLR,,0.00,WeatherDisplay:10.37,2013-07-08 22:24:00,
2013-07-08 17:29:00,96.8,70.6,29.76,North,0,0.0,0.0,43,0.00,CLR,,0.00,WeatherDisplay:10.37,2013-07-08 22:29:00,
2013-07-08 17:34:00,96.1,70.0,29.76,North,0,0.0,0.0,43,0.00,CLR,,0.00,WeatherDisplay:10.37,2013-07-08 22:34:00,
2013-07-08 17:39:00,95.2,69.8,29.76,North,0,0.0,0.0,44,0.00,CLR,,0.00,WeatherDisplay:10.37,2013-07-08 22:39:00,
2013-07-08 17:44:00,94.8,70.2,29.76,North,0,0.0,0.0,45,0.00,CLR,,0.00,WeatherDisplay:10.37,2013-07-08 22:44:00,
2013-07-08 17:50:00,94.6,70.6,29.76,North,0,0.0,0.0,46,0.00,CLR,,0.00,WeatherDisplay:10.37,2013-07-08 22:50:00,
2013-07-08 17:55:00,94.8,71.4,29.75,North,0,0.0,0.0,47,0.00,CLR,,0.00,WeatherDisplay:10.37,2013-07-08 22:55:00,
2013-07-08 18:00:00,95.5,71.5,29.75,North,0,0.0,0.0,46,0.00,CLR,,0.00,WeatherDisplay:10.37,2013-07-08 23:00:00,
2013-07-08 18:05:00,96.3,71.5,29.75,North,0,0.0,0.0,45,0.00,SCT,,0.00,WeatherDisplay:10.37,2013-07-08 23:05:00,
2013-07-08 18:11:00,96.6,71.1,29.75,North,0,0.0,0.0,44,0.00,SCT,,0.00,WeatherDisplay:10.37,2013-07-08 23:11:00,
2013-07-08 18:16:00,96.8,72.0,29.75,North,0,0.0,0.0,45,0.00,SCT,,0.00,WeatherDisplay:10.37,2013-07-08 23:16:00,
2013-07-08 18:21:00,97.0,71.5,29.75,North,0,0.0,0.0,44,0.00,SCT,,0.00,WeatherDisplay:10.37,2013-07-08 23:21:00,
2013-07-08 18:26:00,97.2,71.6,29.75,North,0,0.0,0.0,44,0.00,SCT,,0.00,WeatherDisplay:10.37,2013-07-08 23:26:00,
2013-07-08 18:33:00,97.2,70.9,29.75,North,0,0.0,0.0,43,0.00,SCT,,0.00,WeatherDisplay:10.37,2013-07-08 23:33:00,
2013-07-08 18:39:00,97.2,72.3,29.75,North,0,0.0,0.0,45,0.00,SCT,,0.00,WeatherDisplay:10.37,2013-07-08 23:39:00,
2013-07-08 18:44:00,96.4,72.3,29.75,North,0,0.0,0.0,46,0.00,SCT,,0.00,WeatherDisplay:10.37,2013-07-08 23:44:00,
2013-07-08 18:49:00,95.9,71.8,29.75,North,0,0.0,0.0,46,0.00,SCT,,0.00,WeatherDisplay:10.37,2013-07-08 23:49:00,
2013-07-08 18:54:00,95.4,71.3,29.75,North,0,0.0,0.0,46,0.00,SCT,,0.00,WeatherDisplay:10.37,2013-07-08 23:54:00,
2013-07-08 18:59:00,95.4,71.3,29.75,North,0,0.0,0.0,46,0.00,SCT,,0.00,WeatherDisplay:10.37,2013-07-08 23:59:00,
2013-07-08 19:05:00,95.2,71.1,29.75,North,0,0.0,0.0,46,0.00,BKN,,0.00,WeatherDisplay:10.37,2013-07-09 00:05:00,
2013-07-08 19:11:00,95.0,71.6,29.75,North,0,0.0,0.0,47,0.00,BKN,,0.00,WeatherDisplay:10.37,2013-07-09 00:11:00,
2013-07-08 19:16:00,94.8,71.4,29.75,North,0,0.0,0.0,47,0.00,BKN,,0.00,WeatherDisplay:10.37,2013-07-09 00:16:00,
2013-07-08 19:22:00,95.0,71.6,29.75,North,0,0.0,0.0,47,0.00,BKN,,0.00,WeatherDisplay:10.37,2013-07-09 00:22:00,
2013-07-08 19:27:00,95.0,71.0,29.75,North,0,0.0,0.0,46,0.00,BKN,,0.00,WeatherDisplay:10.37,2013-07-09 00:27:00,
2013-07-08 19:33:00,95.2,71.8,29.75,North,0,0.0,0.0,47,0.00,BKN,,0.00,WeatherDisplay:10.37,2013-07-09 00:33:00,
2013-07-08 19:38:00,95.2,71.1,29.76,North,0,0.0,0.0,46,0.00,BKN,,0.00,WeatherDisplay:10.37,2013-07-09 00:38:00,
2013-07-08 19:43:00,94.6,70.6,29.76,North,0,0.0,0.0,46,0.00,BKN,,0.00,WeatherDisplay:10.37,2013-07-09 00:43:00,
2013-07-08 19:48:00,94.6,70.6,29.76,North,0,0.0,0.0,46,0.00,BKN,,0.00,WeatherDisplay:10.37,2013-07-09 00:48:00,
2013-07-08 19:54:00,94.5,71.1,29.76,North,0,0.0,0.0,47,0.00,BKN,,0.00,WeatherDisplay:10.37,2013-07-09 00:54:00,
2013-07-08 19:59:00,94.1,70.2,29.77,North,0,0.0,0.0,46,0.00,BKN,,0.00,WeatherDisplay:10.37,2013-07-09 00:59:00,
2013-07-08 20:04:00,93.7,70.5,29.77,North,0,0.0,0.0,47,0.00,CLR,,0.00,WeatherDisplay:10.37,2013-07-09 01:04:00,
2013-07-08 20:12:00,93.4,70.1,29.77,North,0,0.0,0.0,47,0.00,CLR,,0.00,WeatherDisplay:10.37,2013-07-09 01:12:00,
2013-07-08 20:18:00,93.0,69.8,29.77,North,0,0.0,0.0,47,0.00,CLR,,0.00,WeatherDisplay:10.37,2013-07-09 01:18:00,
2013-07-08 20:23:00,92.7,70.1,29.77,North,0,0.0,0.0,48,0.00,CLR,,0.00,WeatherDisplay:10.37,2013-07-09 01:23:00,
2013-07-08 20:28:00,92.3,70.4,29.77,North,0,0.0,0.0,49,0.00,CLR,,0.00,WeatherDisplay:10.37,2013-07-09 01:28:00,
2013-07-08 20:34:00,91.9,70.0,29.77,North,0,0.0,0.0,49,0.00,CLR,,0.00,WeatherDisplay:10.37,2013-07-09 01:34:00,
2013-07-08 20:39:00,91.8,70.5,29.77,North,0,0.0,0.0,50,0.00,CLR,,0.00,WeatherDisplay:10.37,2013-07-09 01:39:00,
2013-07-08 20:45:00,91.4,70.1,29.77,North,0,0.0,0.0,50,0.00,CLR,,0.00,WeatherDisplay:10.37,2013-07-09 01:45:00,
2013-07-08 20:50:00,91.2,70.0,29.77,North,0,0.0,0.0,50,0.00,CLR,,0.00,WeatherDisplay:10.37,2013-07-09 01:50:00,
2013-07-08 20:55:00,90.9,70.2,29.77,North,0,0.0,0.0,51,0.00,CLR,,0.00,WeatherDisplay:10.37,2013-07-09 01:55:00,
2013-07-08 21:00:00,90.5,69.9,29.78,North,0,0.0,0.0,51,0.00,CLR,,0.00,WeatherDisplay:10.37,2013-07-09 02:00:00,
2013-07-08 21:05:00,90.1,70.1,29.78,North,0,0.0,0.0,52,0.00,CLR,,0.00,WeatherDisplay:10.37,2013-07-09 02:05:00,
2013-07-08 21:11:00,89.8,69.8,29.78,North,0,0.0,0.0,52,0.00,CLR,,0.00,WeatherDisplay:10.37,2013-07-09 02:11:00,
2013-07-08 21:17:00,89.4,70.0,29.78,North,0,0.0,0.0,53,0.00,CLR,,0.00,WeatherDisplay:10.37,2013-07-09 02:17:00,
2013-07-08 21:22:00,89.2,69.9,29.78,North,0,0.0,0.0,53,0.00,CLR,,0.00,WeatherDisplay:10.37,2013-07-09 02:22:00,
2013-07-08 21:28:00,88.9,70.1,29.79,North,0,0.0,0.0,54,0.00,CLR,,0.00,WeatherDisplay:10.37,2013-07-09 02:28:00,
2013-07-08 21:34:00,88.7,69.9,29.79,North,0,0.0,0.0,54,0.00,CLR,,0.00,WeatherDisplay:10.37,2013-07-09 02:34:00,
2013-07-08 21:39:00,88.5,70.3,29.79,North,0,0.0,0.0,55,0.00,CLR,,0.00,WeatherDisplay:10.37,2013-07-09 02:39:00,
2013-07-08 21:44:00,88.3,70.1,29.80,North,0,0.0,0.0,55,0.00,CLR,,0.00,WeatherDisplay:10.37,2013-07-09 02:44:00,
2013-07-08 21:50:00,88.0,69.8,29.79,North,0,0.0,0.0,55,0.00,CLR,,0.00,WeatherDisplay:10.37,2013-07-09 02:50:00,
2013-07-08 21:55:00,87.6,70.0,29.80,North,0,0.0,0.0,56,0.00,CLR,,0.00,WeatherDisplay:10.37,2013-07-09 02:55:00,
2013-07-08 22:00:00,87.4,69.8,29.80,North,0,0.0,0.0,56,0.00,CLR,,0.00,WeatherDisplay:10.37,2013-07-09 03:00:00,
2013-07-08 22:05:00,87.4,69.8,29.80,North,0,0.0,0.0,56,0.00,CLR,,0.00,WeatherDisplay:10.37,2013-07-09 03:05:00,
2013-07-08 22:11:00,87.1,69.5,29.80,North,0,0.0,0.0,56,0.00,CLR,,0.00,WeatherDisplay:10.37,2013-07-09 03:11:00,
2013-07-08 22:16:00,87.1,69.5,29.81,North,0,0.0,0.0,56,0.00,CLR,,0.00,WeatherDisplay:10.37,2013-07-09 03:16:00,
2013-07-08 22:21:00,86.7,69.7,29.81,North,0,0.0,0.0,57,0.00,CLR,,0.00,WeatherDisplay:10.37,2013-07-09 03:21:00,
2013-07-08 22:26:00,86.5,69.5,29.81,North,0,0.0,0.0,57,0.00,CLR,,0.00,WeatherDisplay:10.37,2013-07-09 03:26:00,
2013-07-08 22:32:00,86.4,69.3,29.81,North,0,0.0,0.0,57,0.00,CLR,,0.00,WeatherDisplay:10.37,2013-07-09 03:32:00,
2013-07-08 22:38:00,86.2,69.2,29.82,North,0,0.0,0.0,57,0.00,CLR,,0.00,WeatherDisplay:10.37,2013-07-09 03:38:00,
2013-07-08 22:44:00,86.4,69.8,29.82,North,0,0.0,0.0,58,0.00,CLR,,0.00,WeatherDisplay:10.37,2013-07-09 03:44:00,
2013-07-08 22:49:00,86.4,69.8,29.82,North,0,0.0,0.0,58,0.00,CLR,,0.00,WeatherDisplay:10.37,2013-07-09 03:49:00,
2013-07-08 22:54:00,86.4,69.8,29.82,North,0,0.0,0.0,58,0.00,CLR,,0.00,WeatherDisplay:10.37,2013-07-09 03:54:00,
2013-07-08 23:00:00,86.4,69.8,29.82,North,0,0.0,0.0,58,0.00,CLR,,0.00,WeatherDisplay:10.37,2013-07-09 04:00:00,
2013-07-08 23:01:00,86.4,69.8,29.82,North,0,0.0,0.0,58,0.00,CLR,,0.00,WeatherDisplay:10.37,2013-07-09 04:01:00,
2013-07-08 23:02:00,86.4,69.8,29.82,North,0,0.0,0.0,58,0.00,CLR,,0.00,WeatherDisplay:10.37,2013-07-09 04:02:00,
2013-07-08 23:07:00,86.2,69.7,29.82,North,0,0.0,0.0,58,0.00,CLR,,0.00,WeatherDisplay:10.37,2013-07-09 04:07:00,
2013-07-08 23:12:00,86.2,69.7,29.83,North,0,0.0,0.0,58,0.00,CLR,,0.00,WeatherDisplay:10.37,2013-07-09 04:12:00,
2013-07-08 23:17:00,86.0,69.5,29.82,North,0,0.0,0.0,58,0.00,CLR,,0.00,WeatherDisplay:10.37,2013-07-09 04:17:00,
2013-07-08 23:22:00,86.0,69.5,29.82,North,0,0.0,0.0,58,0.00,CLR,,0.00,WeatherDisplay:10.37,2013-07-09 04:22:00,
2013-07-08 23:27:00,85.8,69.3,29.82,North,0,0.0,0.0,58,0.00,CLR,,0.00,WeatherDisplay:10.37,2013-07-09 04:27:00,
2013-07-08 23:33:00,85.6,69.7,29.82,North,0,0.0,0.0,59,0.00,CLR,,0.00,WeatherDisplay:10.37,2013-07-09 04:33:00,
2013-07-08 23:38:00,85.3,69.3,29.82,North,0,0.0,0.0,59,0.00,CLR,,0.00,WeatherDisplay:10.37,2013-07-09 04:38:00,
2013-07-08 23:43:00,85.1,69.2,29.82,North,0,0.0,0.0,59,0.00,CLR,,0.00,WeatherDisplay:10.37,2013-07-09 04:43:00,
2013-07-08 23:48:00,84.9,69.0,29.82,North,0,0.0,0.0,59,0.00,CLR,,0.00,WeatherDisplay:10.37,2013-07-09 04:48:00,
2013-07-08 23:53:00,84.6,69.1,29.82,North,0,0.0,0.0,60,0.00,CLR,,0.00,WeatherDisplay:10.37,2013-07-09 04:53:00,
2013-07-08 23:58:00,84.4,69.0,29.82,North,0,0.0,0.0,60,0.00,CLR,,0.00,WeatherDisplay:10.37,2013-07-09 04:58:00,